Back to catalog

STARLINK-37804

AliveCommunicationsSSO
NORAD 69302·PAYLOAD·🇺🇸 United States

Launched May 30, 2026 from Vandenberg Space Force Base

Loading…

Next Passes (next 24 hours)

TLE

FreshSource: CelesTrak SupGP

Epoch: Sep 14, 2026, 21:13 UTC

1 69302C 26119G   26257.88451389  .00025290  00000+0  78526-3 0  2572
2 69302  97.2824 282.6718 0001102 101.3798 160.7682 15.33418188    14

Track STARLINK-37804 in real time with AllMySat

Download on the App Store